Regional Weather Roundup
Issued by NWS

Home | Current Version | Previous Version | Graphics & Text | Print | Product List | Glossary On
Versions: 1 2 3 4 5 6 7 8 9 10 11 12 13 14 15 16 17 18 19 20 21 22 23 24 25 26 27 28 29 30 31 32 33 34 35 36 37 38 39 40 41 42 43 44 45 46 47 48 49 50
000
ASUS44 KMEG 280400
RWRTN
TENNESSEE HOURLY STATE WEATHER ROUNDUP
NATIONAL WEATHER SERVICE MEMPHIS TN
1100 PM CDT WED AUG 27 2014

TNZ002-004-019-021-049-052-054-088>092-280500-
WEST TENNESSEE

CITY           SKY/WX    TMP DP  RH WIND       PRES   REMARKS
MEMPHIS INTL   CLEAR     83  66  56 SE5       30.03F
NWS MEMPHIS      N/A     75 N/A N/A MISG        N/A
JACKSON        CLEAR     74  71  91 CALM      30.04F
DYERSBURG      CLEAR     75  66  73 CALM      30.05F
UNION CITY     CLEAR     75  75 100 CALM      30.03F
PARIS          CLEAR     73  72  94 CALM      30.06S
SAVANNAH       CLEAR     72  72 100 CALM      30.05F
$$

TNZ008-025-027-028-033-062-065-066-280500-
NORTH MIDDLE TENNESSEE

CITY           SKY/WX    TMP DP  RH WIND       PRES   REMARKS
NASHVILLE      CLEAR     77  71  82 CALM      30.05F
CLARKSVILLE    CLEAR     76  71  85 CALM      30.05F
COOKEVILLE       N/A     68  66  94 CALM      30.07F VSB 3/4
CROSSVILLE     CLEAR     70  64  81 CALM      30.13S
$$

TNZ061-075-076-078-094-096-097-280500-
SOUTH MIDDLE TENNESSEE

CITY           SKY/WX    TMP DP  RH WIND       PRES   REMARKS
WINCHESTER     CLEAR     70  66  88 CALM      30.08S
SHELBYVILLE    CLEAR     70  70 100 CALM      30.07S
$$

TNZ017-018-042-046-047-280500-
NORTHEAST TENNESSEE

CITY           SKY/WX    TMP DP  RH WIND       PRES   REMARKS
TRI CITIES     PTCLDY    65  59  81 CALM      30.10S
ELIZABETHTON   CLEAR     61  57  88 CALM      30.12S
$$

TNZ012-013-036-069-073-074-280500-
CENTRAL EAST TENNESSEE

CITY           SKY/WX    TMP DP  RH WIND       PRES   REMARKS
KNOXVILLE      CLEAR     70  65  84 NE3       30.06S
OAK RIDGE      CLEAR     70  66  87 CALM      30.09S
GATLINBURG     CLEAR     66  63  88 CALM      30.07F
$$

TNZ083-085-099-280500-
SOUTHEAST TENNESSEE

CITY           SKY/WX    TMP DP  RH WIND       PRES   REMARKS
CHATTANOOGA    CLEAR     73  65  75 CALM      30.06S
$$

SKY/WX REPORTED AS FAIR MEANS FEW OR NO CLOUDS BELOW
12 THOUSAND FEET.




USA.gov is the U.S. government's official web portal to all federal, state and local government web resources and services.